sat.trackr.live / text

‹ back to catalog

STARLINK-6363

NORAD 57375 · 2023-099AZ

PAYLOAD ACTIVE UNKNOWN

§ Identity

Operator
Country
US
Launch date
2023-07-16
Launch site
AFETR
Launch vehicle
Mass (kg)
RCS (m²)

Purposes: comms

External: N2YO · Heavens-Above · Gunter

§ Orbital elements

Epoch: 2026-05-25T02:30:48.487104Z

Period
94.27 min
Inclination
43.0009°
Eccentricity
0.0001081
Mean motion
15.27576153 rev/d
Perigee alt
482.3 km
Apogee alt
483.8 km
Semi-major
6,861.2 km
B*
2.1601e-5
RAAN
170.3179°
Arg perigee
277.8278°
Mean anomaly
82.2451°
Rev number
15,788

§ Raw data

STARLINK-63631 57375U 23099AZ  26145.10472786  .00000332  00000+0  21601-4 0  99942 57375  43.0009 170.3179 0001081 277.8278  82.2451 15.27576153157887

JSON: /api/v1/satellites/57375 · /tle

For live sub-satellite position, see the globe view (requires WebGL).

§ Visibility from observer

Set your observer location to see the next 7 days of passes ≥ 10°. The values pass through the URL so the page stays shareable.

No JS? Fill the form by hand. The geolocation button needs JavaScript.